Weather observations for the past three days for
Los Alamitos Army Airfield
Imperial (Metric)
Date Time (pdt) Wind (mph) Vis. (mi.) Weather Sky Cond. Temperature (ºF) Relative Humidity Wind Chill (°F) Heat Index (°F) Pressure Precipitation (in)
Air Dwpt 6 hour altimeter (in) sea level (mb) 1 hr 3 hr 6 hr
Max. Min.
21 06:55 Calm 7.00 A Few Clouds FEW120 FEW180 64.2 61.2 90% 29.85 1011.1
21 05:55 Calm 5.00 Fog/Mist CLR 64.2 62.1 93% 29.84 1010.8
21 04:55 Calm 7.00 Fair CLR 64.9 61.9 68.2 64 90% 29.83 1010.4
21 03:55 Calm 7.00 Fair CLR 65.1 61.7 89% 29.84 1010.8
21 02:55 Calm 7.00 Fair CLR 65.8 62.8 90% 29.84 1010.8
21 01:55 S 5 7.00 Fair CLR 65.7 62.2 89% 29.85 1011.1
21 00:55 S 3 8.00 Fair CLR 66.9 63 87% 29.86 1011.4
20 23:55 Calm 8.00 Fair CLR 67.3 61.5 82% 29.87 1011.8
20 22:55 Calm 9.00 Fair CLR 68.4 62.2 87.3 66.7 81% 29.86 1011.4
20 21:55 S 3 9.00 Fair CLR 69.6 62.4 78% 29.86 1011.4
20 20:55 Calm 9.00 Fair CLR 69.6 61.7 76% 29.84 1010.8
20 19:55 S 5 8.00 Fair CLR 73.9 62.6 68% 29.83 1010.4
20 18:55 SW 6 8.00 Fair CLR 78.6 63.5 60% 80 29.82 1010.1
20 17:55 W 6 8.00 Fair CLR 85.1 60.6 44% 85 29.82 1010.1
20 16:55 S 9 8.00 Fair CLR 85.1 63.7 86.2 77.9 49% 86 29.83 1010.4
20 15:55 S 8 10.00 A Few Clouds FEW050 84.7 63.3 49% 86 29.85 1011.1
20 14:55 S 8 10.00 A Few Clouds FEW050 82.8 63.9 53% 84 29.86 1011.4
20 13:55 S 9 10.00 A Few Clouds FEW050 80.6 63.9 57% 82 29.88 1012.1
20 12:55 SW 9 7.00 A Few Clouds FEW060 FEW150 78.8 63.7 60% 80 29.9 1012.8
20 11:55 SW 8 7.00 A Few Clouds FEW060 FEW150 78.3 63.7 61% 80 29.9 1012.8
20 10:55 SW 8 6.00 A Few Clouds with Haze FEW150 FEW200 79.7 64.9 79.7 59.7 61% 82 29.91 1013.1
20 09:55 Calm 4.00 A Few Clouds with Haze FEW150 75.4 64 68% 77 29.92 1013.5
20 08:55 W 3 3.00 Partly Cloudy with Haze SCT005 69.4 63.3 81% 29.92 1013.5
20 07:55 Calm 1.50 Fog/Mist BKN003 64.2 62.1 93% 29.91 1013.1
20 06:55 Calm 2.00 Fog/Mist BKN005 63.1 61 93% 29.9 1012.8
20 05:55 W 3 4.00 Fog/Mist CLR 59.7 57.4 92% 29.89 1012.5
20 04:55 Calm 5.00 Fog/Mist CLR 62.8 60.4 66.9 60.6 92% 29.88 1012.1
20 03:55 NW 3 6.00 Fog/Mist CLR 62.1 59.4 91% 29.88 1012.1
20 02:55 Calm 6.00 Fog/Mist CLR 63.1 60.1 90% 29.88 1012.1
20 01:55 W 3 6.00 Fog/Mist CLR 63.1 59.9 89% 29.89 1012.5
20 00:55 W 5 7.00 Fair CLR 64.2 60.3 87% 29.9 1012.8
19 23:55 W 3 8.00 Fair CLR 65.5 60.8 85% 29.9 1012.8
19 22:55 NW 3 8.00 Fair CLR 67.1 61.7 80.2 66.7 83% 29.91 1013.1
19 21:55 NW 6 9.00 Fair CLR 68.7 62.2 80% 29.91 1013.1
19 20:55 NW 5 8.00 Fair CLR 71.4 62.6 74% 29.89 1012.5
19 19:55 SW 3 8.00 Fair CLR 72.7 63.1 72% 29.88 1012.1
19 18:55 S 7 8.00 Fair CLR 77 63.3 63% 79 29.87 1011.8
19 17:55 S 9 8.00 Fair CLR 76.5 63 63% 78 29.87 1011.8
19 16:55 S 9 7.00 Fair CLR 79.7 64 80.4 75.6 59% 81 29.88 1012.1
19 15:55 SW 12 10.00 Fair CLR 76.8 64.9 67% 79 29.9 1012.8
19 14:55 SW 8 6.00 Fair with Haze CLR 78.6 64.4 62% 80 29.91 1013.1
19 13:55 SW 10 7.00 Fair CLR 79.2 65.5 63% 81 29.93 1013.8
19 12:55 SW 8 9.00 Fair CLR 79.3 64.8 61% 81 29.94 1014.1
19 11:55 S 6 9.00 Fair CLR 78.8 65.5 64% 81 29.95 1014.5
19 10:55 S 5 7.00 A Few Clouds FEW010 75.2 64.8 76.1 65.5 70% 77 29.96 1014.8
19 09:55 Vrbl 3 4.00 Partly Cloudy with Haze SCT009 72.5 64 75% 29.96 1014.8
19 08:55 W 3 4.00 Overcast with Haze OVC007 68.2 63.1 84% 29.96 1014.8
19 07:55 Calm 3.00 Fog/Mist OVC005 66.6 62.8 88% 29.96 1014.8
19 06:55 S 3 3.00 Fog/Mist OVC005 65.7 62.6 90% 29.95 1014.5
19 05:55 Calm 3.00 Fog/Mist OVC006 65.7 62.2 89% 29.94 1014.1
19 04:55 Calm 4.00 Fog/Mist OVC006 66.4 63 66.6 64.8 89% 29.93 1013.8
19 03:55 Calm 5.00 Fog/Mist OVC007 66 62.6 89% 29.93 1013.8
19 02:55 S 3 5.00 Fog/Mist OVC007 65.7 63 91% 29.93 1013.8
19 01:55 SW 5 5.00 Fog/Mist OVC005 65.3 63 92% 29.94 1014.1
19 00:55 S 5 7.00 Partly Cloudy SCT007 65.5 62.4 90% 29.96 1014.8
18 23:55 S 3 8.00 Fair CLR 66.4 62.4 87% 29.96 1014.8
18 22:55 Calm 7.00 Fair CLR 66.6 62.6 75.6 66.4 87% 29.96 1014.8
18 21:55 S 3 7.00 A Few Clouds FEW010 66.6 62.8 88% 29.94 1014.1
18 20:55 S 5 8.00 A Few Clouds FEW010 FEW060 67.3 63 86% 29.93 1013.8
18 19:55 SW 8 10.00 A Few Clouds FEW010 FEW060 68.2 63.1 84% 29.92 1013.5
18 18:55 SW 10 10.00 A Few Clouds FEW010 FEW060 71.6 63.7 76% 29.92 1013.5
18 17:55 S 13 10.00 A Few Clouds FEW010 FEW060 74.5 64 70% 29.9 1012.8
18 16:55 S 10 10.00 A Few Clouds FEW015 FEW060 75.6 63.9 80.4 75.4 67% 77 29.9 1012.8
18 15:55 S 10 10.00 A Few Clouds FEW015 FEW060 79.2 64.9 62% 81 29.91 1013.1
18 14:55 SW 8 10.00 Partly Cloudy FEW015 FEW060 SCT150 78.8 64.6 62% 81 29.93 1013.8
18 13:55 S 6 8.00 Partly Cloudy FEW015 FEW060 SCT150 77.4 64.6 65% 79 29.95 1014.5
18 12:55 SW 10 8.00 Partly Cloudy SCT015 SCT060 77.7 64.6 64% 80 29.95 1014.5
18 11:55 SW 9 7.00 Partly Cloudy SCT014 77 64.8 66% 79 29.95 1014.5
18 10:55 S 9 7.00 Mostly Cloudy BKN013 75.7 65.3 77.2 66.6 70% 77 29.96 1014.8
18 09:55 SW 6 7.00 Mostly Cloudy BKN011 73.2 64.8 75% 29.94 1014.1
18 08:55 SW 6 7.00 Overcast OVC010 71.2 64.8 80% 29.94 1014.1
18 07:55 SW 3 6.00 Overcast with Haze OVC008 69.3 64.2 84% 29.93 1013.8
Date Time (pdt) Wind (mph) Vis. (mi.) Weather Sky Cond. Air Dwpt Max. Min. Relative Humidity Wind Chill (°F) Heat Index (°F) altimeter (in) sea level (mb) 1 hr 3 hr 6 hr
6 hour
Temperature (ºF) Pressure Precipitation (in)